Location: Albuquerque Trailhead
(34.7934°N, 106.3736°W)
Time: 01:19:58
(UTC+00:00)

BREEZE-M DEB (TANK) - Pass Details

Date: 20 June 2021
Orbit: 306 x 14838 km, 49.5° (Epoch: 27 July)

Event Time Altitude Azimuth Distance (km) Brightness Sun altitude
Exits shadow 11:00:01 12° 203° (SSW) 1,141 4.1 -9.8°
Maximum altitude 11:01:52 34° 137° (SE) 529 3.0 -9.5°
Drops below altitude 10° 11:03:57 11° 68° (ENE) 1,245 6.3 -9.1°
Sets 11:06:22 0° 57° (ENE) 2,481 8.8 -8.7°
